Content
SEND FEEDBACK

Daily
Averages
Monthly
Summary
United States of America

OAKS, TEXAS


Home > North America > United States > Texas
Elevation: 250 feet     Latitude: 28 35N     Longitude: 098 08W

WEATHER
 
SELECT A DAY
Number of Records: 181,542;   Date Range: 5/14/07 - 11/22/14
 
SHARE

PRINT THIS DATA

[ ← Previous Day ]
WEATHER ALMANAC - JANUARY 30, 2013
[ Next Day → ]
[ °C ]   °F
Weather ElementAverageHighLow
Temperature57.2 °F66.2 °F (2:15 pm)44.6 °F (11:15 pm)
Dewpoint20.8 °F35.6 °F (12:35 am)14 °F (2:35 pm)
Humidity25.4 %37 % (12:35 am)13 % (2:35 pm)
Barometer30.06 in30.25 in (10:35 pm)29.81 in (12:35 am)
Wind Speed12.9 mph31.1 mph (1:35 pm)
Wind Gust40.3 mph (1:35 pm)
Weather ElementAverage
Visibility10 mi
Wind DirectionW (274 °)

Weather ElementTotal
Precipitation---
Heating Degree Days9.6 (Base 65)
Growing Degree Days5.4 (Base 50)
Averaged from 65 records on January 30, 2013
WEATHER CONDITIONS BREAKOUT
WIND DIRECTION BREAKOUT
WEATHER BY HOUR - JANUARY 30, 2013
[ °C ]   °F
Local TimeTemperatureDewpointHumidityBarometerVisibilityWind DirectionWind SpeedGust SpeedPrecipitationEventsConditions
12:35 AM62.6 °F35.6 °F37 %29.81 in10.0 miNorth (360°)9.2 mphClear
12:55 AM62.6 °F33.8 °F34 %29.82 in10.0 miNorth (360°)12.7 mph17.3 mphClear
1:15 AM62.6 °F32.0 °F32 %29.83 in10.0 miNorth (360°)15.0 mph20.7 mphClear
1:35 AM60.8 °F32.0 °F34 %29.85 in10.0 miNorth (360°)12.7 mph17.3 mphClear
1:55 AM60.8 °F30.2 °F31 %29.85 in10.0 miNorth (360°)12.7 mph19.6 mphClear
2:15 AM60.8 °F28.4 °F29 %29.86 in10.0 miNorth (350°)10.4 mphClear
2:35 AM59.0 °F28.4 °F31 %29.87 in10.0 miNorth (350°)9.2 mphClear
2:55 AM59.0 °F28.4 °F31 %29.88 in10.0 miNorth (350°)6.9 mphClear
3:15 AM57.2 °F28.4 °F33 %29.88 in10.0 miNorth (350°)8.1 mphClear
3:35 AM55.4 °F28.4 °F36 %29.90 in10.0 miNNW (340°)6.9 mphClear
3:55 AM55.4 °F28.4 °F36 %29.91 in10.0 miNNW (340°)10.4 mphClear
4:15 AM55.4 °F26.6 °F33 %29.91 in10.0 miNNW (340°)10.4 mphClear
4:55 AM53.6 °F23.0 °F30 %29.93 in10.0 miNNW (330°)9.2 mphClear
5:15 AM53.6 °F23.0 °F30 %29.93 in10.0 miNW (320°)9.2 mphClear
5:35 AM53.6 °F23.0 °F30 %29.94 in10.0 miNW (320°)6.9 mphClear
5:55 AM53.6 °F23.0 °F30 %29.95 in10.0 miNW (320°)8.1 mphClear
6:15 AM53.6 °F21.2 °F28 %29.97 in10.0 miNW (320°)11.5 mphClear
6:35 AM51.8 °F23.0 °F33 %29.98 in10.0 miNW (310°)9.2 mphClear
6:55 AM51.8 °F23.0 °F33 %29.99 in10.0 miNW (310°)8.1 mphClear
7:15 AM50.0 °F23.0 °F35 %30.01 in10.0 miNW (320°)8.1 mphClear
7:35 AM50.0 °F24.8 °F37 %30.03 in10.0 miWNW (300°)5.8 mphClear
7:55 AM50.0 °F24.8 °F37 %30.04 in10.0 miNW (310°)6.9 mphClear
8:15 AM51.8 °F24.8 °F35 %30.05 in10.0 miNW (310°)10.4 mphClear
8:35 AM53.6 °F23.0 °F30 %30.06 in10.0 miNW (310°)10.4 mph16.1 mphClear
9:15 AM57.2 °F21.2 °F25 %30.09 in10.0 miNW (320°)18.4 mph31.1 mphClear
9:35 AM59.0 °F23.0 °F25 %30.10 in10.0 miNW (310°)15.0 mph21.9 mphClear
9:55 AM59.0 °F19.4 °F22 %30.11 in10.0 miNW (310°)23.0 mph34.5 mphClear
10:15 AM59.0 °F19.4 °F22 %30.12 in10.0 miNW (320°)24.2 mph33.4 mphClear
10:35 AM60.8 °F19.4 °F20 %30.13 in10.0 miNNW (330°)23.0 mph31.1 mphClear
10:55 AM60.8 °F19.4 °F20 %30.13 in10.0 miNW (320°)21.9 mph31.1 mphClear
11:35 AM62.6 °F19.4 °F19 %30.14 in10.0 miNNW (330°)24.2 mph32.2 mphClear
11:55 AM62.6 °F21.2 °F20 %30.13 in10.0 miNNW (330°)21.9 mph31.1 mphClear
12:15 PM62.6 °F19.4 °F19 %30.13 in10.0 miNNW (340°)25.3 mph33.4 mphClear
12:35 PM62.6 °F21.2 °F20 %30.12 in10.0 miNNW (330°)20.7 mph38.0 mphClear
12:55 PM62.6 °F21.2 °F20 %30.12 in10.0 miNW (310°)23.0 mph31.1 mphClear
1:15 PM62.6 °F19.4 °F19 %30.11 in10.0 miNNW (330°)24.2 mph32.2 mphClear
1:35 PM64.4 °F17.6 °F16 %30.09 in10.0 miNNW (340°)31.1 mph40.3 mphClear
1:55 PM64.4 °F19.4 °F18 %30.09 in10.0 miNNW (340°)24.2 mph34.5 mphClear
2:15 PM66.2 °F17.6 °F15 %30.09 in10.0 miNW (320°)20.7 mph29.9 mphClear
2:35 PM66.2 °F14.0 °F13 %30.08 in10.0 miNNW (330°)21.9 mph27.6 mphClear
3:15 PM64.4 °F15.8 °F15 %30.09 in10.0 miNW (320°)20.7 mph32.2 mphClear
3:35 PM64.4 °F15.8 °F15 %30.10 in10.0 miNNW (340°)19.6 mph34.5 mphClear
3:55 PM64.4 °F15.8 °F15 %30.10 in10.0 miNNW (340°)18.4 mph28.8 mphClear
4:15 PM64.4 °F17.6 °F16 %30.10 in10.0 miNW (310°)23.0 mph29.9 mphClear
4:35 PM64.4 °F17.6 °F16 %30.11 in10.0 miNW (320°)18.4 mph26.5 mphClear
4:55 PM62.6 °F15.8 °F16 %30.11 in10.0 miNNW (340°)19.6 mph25.3 mphClear
5:15 PM62.6 °F14.0 °F15 %30.12 in10.0 miNNW (340°)18.4 mph25.3 mphClear
5:35 PM60.8 °F14.0 °F16 %30.11 in10.0 miNNW (340°)17.3 mph21.9 mphClear
5:55 PM60.8 °F14.0 °F16 %30.12 in10.0 miNNW (340°)12.7 mph17.3 mphClear
6:15 PM59.0 °F14.0 °F17 %30.13 in10.0 miNNW (340°)9.2 mphClear
6:35 PM57.2 °F14.0 °F18 %30.14 in10.0 miNNW (340°)8.1 mphClear
6:55 PM55.4 °F14.0 °F20 %30.15 in10.0 miNorth (350°)5.8 mphClear
7:35 PM53.6 °F14.0 °F21 %30.16 in10.0 miNorth (350°)4.6 mphClear
7:55 PM51.8 °F15.8 °F24 %30.17 in10.0 miNorth (10°)4.6 mphClear
8:15 PM51.8 °F17.6 °F26 %30.18 in10.0 miNNE (20°)3.5 mphClear
8:35 PM51.8 °F15.8 °F24 %30.20 in10.0 miCalmClear
8:55 PM51.8 °F14.0 °F22 %30.21 in10.0 miCalmClear
9:15 PM51.8 °F15.8 °F24 %30.21 in10.0 miNNE (20°)3.5 mphClear
9:35 PM50.0 °F14.0 °F24 %30.22 in10.0 miNorth (10°)5.8 mphClear
9:55 PM50.0 °F15.8 °F26 %30.23 in10.0 miNorth (10°)5.8 mphClear
10:15 PM48.2 °F17.6 °F30 %30.23 in10.0 miNNE (20°)4.6 mphClear
10:35 PM46.4 °F17.6 °F32 %30.25 in10.0 miNE (50°)3.5 mphClear
10:55 PM46.4 °F17.6 °F32 %30.25 in10.0 miNNE (30°)4.6 mphClear
11:15 PM44.6 °F19.4 °F37 %30.24 in10.0 miNE (40°)6.9 mphClear
11:55 PM46.4 °F19.4 °F34 %30.24 in10.0 miNNE (20°)5.8 mphClear
Hourly data recorded from KBEA, located miles away from Oaks, Texas







STORIES FROM OUR PARTNERS